START_TIME,STEP,MOV.,A39,t_acc.,A33,t_acc.,P32,t_acc.,P31,t_acc.
1979-03-02 12:00:12.170 ,4,0,2.,0.8,1.,0.8,0.,0.8,3.,0.8
1979-03-02 12:00:12.970 ,4,0,4.,0.8,1.,0.8,1.,0.8,8.,0.8
1979-03-02 12:00:13.770 ,4,0,0.,0.8,1.,0.8,1.,0.8,5.,0.8
1979-03-02 12:00:14.570 ,4,0,7.,0.8,2.,0.8,1.,0.8,7.,0.8
1979-03-02 12:00:15.370 ,4,0,5.,0.8,0.,0.8,1.,0.8,3.,0.8
1979-03-02 12:00:16.170 ,4,0,4.,0.8,1.,0.8,0.,0.8,4.,0.8
1979-03-02 12:00:16.970 ,4,0,7.,0.8,2.,0.8,1.,0.8,6.,0.8
1979-03-02 12:00:17.770 ,4,0,5.,0.8,1.,0.8,0.,0.8,6.,0.8
1979-03-02 12:00:18.570 ,4,0,1.,0.8,1.,0.8,0.,0.8,5.,0.8
1979-03-02 12:00:19.370 ,4,0,1.,0.8,0.,0.8,0.,0.8,3.,0.8
1979-03-02 12:00:20.170 ,4,0,5.,0.8,0.,0.8,0.,0.8,5.,0.8
1979-03-02 12:00:20.970 ,4,0,2.,0.8,0.,0.8,1.,0.8,9.,0.8
1979-03-02 12:00:21.770 ,4,0,2.,0.8,0.,0.8,0.,0.8,4.,0.8
1979-03-02 12:00:22.570 ,4,0,3.,0.8,0.,0.8,0.,0.8,5.,0.8
1979-03-02 12:00:23.370 ,4,0,1.,0.8,0.,0.8,0.,0.8,6.,0.8
1979-03-02 12:00:24.170 ,4,0,2.,0.8,1.,0.8,0.,0.8,4.,0.8
1979-03-02 12:00:24.970 ,4,0,5.,0.8,0.,0.8,0.,0.8,3.,0.8
1979-03-02 12:00:25.770 ,4,0,3.,0.8,0.,0.8,1.,0.8,8.,0.8
1979-03-02 12:00:26.570 ,4,0,6.,0.8,1.,0.8,0.,0.8,2.,0.8
1979-03-02 12:00:27.370 ,4,0,4.,0.8,0.,0.8,0.,0.8,7.,0.8
1979-03-02 12:00:28.170 ,4,0,4.,0.8,0.,0.8,0.,0.8,7.,0.8
1979-03-02 12:00:28.970 ,4,0,4.,0.8,0.,0.8,0.,0.8,5.,0.8
1979-03-02 12:00:29.770 ,4,0,4.,0.8,0.,0.8,0.,0.8,5.,0.8
1979-03-02 12:00:30.570 ,4,0,3.,0.8,0.,0.8,0.,0.8,10.,0.8
1979-03-02 12:00:31.370 ,4,0,4.,0.8,0.,0.8,2.,0.8,7.,0.8
1979-03-02 12:00:32.170 ,4,0,4.,0.8,0.,0.8,0.,0.8,6.,0.8
1979-03-02 12:00:32.970 ,4,0,1.,0.8,0.,0.8,0.,0.8,6.,0.8
1979-03-02 12:00:33.770 ,4,0,2.,0.8,0.,0.8,0.,0.8,9.,0.8
1979-03-02 12:00:34.570 ,4,0,4.,0.8,0.,0.8,0.,0.8,7.,0.8
1979-03-02 12:00:35.370 ,4,0,2.,0.8,0.,0.8,0.,0.8,7.,0.8
1979-03-02 12:00:36.170 ,3,0,2.,0.8,0.,0.8,0.,0.8,8.,0.8
1979-03-02 12:00:36.970 ,3,0,3.,0.8,0.,0.8,0.,0.8,8.,0.8
1979-03-02 12:00:37.770 ,3,0,4.,0.8,0.,0.8,0.,0.8,7.,0.8
1979-03-02 12:00:38.570 ,3,0,5.,0.8,0.,0.8,0.,0.8,7.,0.8
1979-03-02 12:00:39.370 ,3,0,3.,0.8,1.,0.8,0.,0.8,4.,0.8
1979-03-02 12:00:40.170 ,3,0,3.,0.8,0.,0.8,0.,0.8,5.,0.8
1979-03-02 12:00:40.970 ,3,0,2.,0.8,0.,0.8,2.,0.8,8.,0.8
1979-03-02 12:00:41.770 ,3,0,0.,0.8,0.,0.8,0.,0.8,8.,0.8
1979-03-02 12:00:42.570 ,3,0,4.,0.8,0.,0.8,0.,0.8,6.,0.8
1979-03-02 12:00:43.370 ,3,0,6.,0.8,0.,0.8,2.,0.8,6.,0.8
1979-03-02 12:00:44.170 ,3,0,3.,0.8,0.,0.8,0.,0.8,6.,0.8
1979-03-02 12:00:44.970 ,3,0,4.,0.8,0.,0.8,0.,0.8,4.,0.8
1979-03-02 12:00:45.770 ,3,0,3.,0.8,0.,0.8,0.,0.8,10.,0.8
1979-03-02 12:00:46.570 ,3,0,5.,0.8,0.,0.8,1.,0.8,10.,0.8
1979-03-02 12:00:47.370 ,3,0,3.,0.8,0.,0.8,1.,0.8,4.,0.8
1979-03-02 12:00:48.170 ,3,0,2.,0.8,0.,0.8,0.,0.8,4.,0.8
1979-03-02 12:00:48.970 ,3,0,2.,0.8,0.,0.8,0.,0.8,7.,0.8
1979-03-02 12:00:49.770 ,3,0,3.,0.8,0.,0.8,0.,0.8,5.,0.8
1979-03-02 12:00:50.570 ,3,0,5.,0.8,0.,0.8,2.,0.8,5.,0.8
1979-03-02 12:00:51.370 ,3,0,2.,0.8,1.,0.8,1.,0.8,5.,0.8
1979-03-02 12:00:52.170 ,3,0,4.,0.8,0.,0.8,1.,0.8,5.,0.8
1979-03-02 12:00:52.970 ,3,0,3.,0.8,0.,0.8,1.,0.8,3.,0.8
1979-03-02 12:00:53.770 ,3,0,6.,0.8,0.,0.8,1.,0.8,5.,0.8
1979-03-02 12:00:54.570 ,3,0,2.,0.8,0.,0.8,0.,0.8,5.,0.8
1979-03-02 12:00:55.370 ,3,0,3.,0.8,0.,0.8,1.,0.8,7.,0.8
1979-03-02 12:00:56.170 ,3,0,3.,0.8,0.,0.8,1.,0.8,2.,0.8
1979-03-02 12:00:56.970 ,3,0,3.,0.8,0.,0.8,1.,0.8,4.,0.8
1979-03-02 12:00:57.770 ,3,0,4.,0.8,0.,0.8,0.,0.8,3.,0.8
1979-03-02 12:00:58.570 ,3,0,2.,0.8,1.,0.8,1.,0.8,5.,0.8
1979-03-02 12:00:59.370 ,3,0,1.,0.8,1.,0.8,0.,0.8,2.,0.8
1979-03-02 12:01:00.170 ,2,0,3.,0.8,1.,0.8,0.,0.8,4.,0.8
1979-03-02 12:01:00.970 ,2,0,2.,0.8,0.,0.8,1.,0.8,5.,0.8
1979-03-02 12:01:01.770 ,2,0,3.,0.8,0.,0.8,0.,0.8,7.,0.8
1979-03-02 12:01:02.570 ,2,0,2.,0.8,0.,0.8,1.,0.8,4.,0.8
1979-03-02 12:01:03.370 ,2,0,3.,0.8,0.,0.8,1.,0.8,3.,0.8
1979-03-02 12:01:04.170 ,2,0,4.,0.8,1.,0.8,0.,0.8,6.,0.8
1979-03-02 12:01:04.970 ,2,0,4.,0.8,0.,0.8,0.,0.8,5.,0.8
1979-03-02 12:01:05.770 ,2,0,4.,0.8,1.,0.8,1.,0.8,8.,0.8
1979-03-02 12:01:06.570 ,2,0,3.,0.8,1.,0.8,0.,0.8,6.,0.8
1979-03-02 12:01:07.370 ,2,0,2.,0.8,1.,0.8,1.,0.8,6.,0.8
1979-03-02 12:01:08.170 ,2,0,4.,0.8,0.,0.8,1.,0.8,4.,0.8
1979-03-02 12:01:08.970 ,2,0,5.,0.8,0.,0.8,0.,0.8,9.,0.8
1979-03-02 12:01:09.770 ,2,0,3.,0.8,0.,0.8,1.,0.8,5.,0.8
1979-03-02 12:01:10.570 ,2,0,2.,0.8,1.,0.8,0.,0.8,6.,0.8
1979-03-02 12:01:11.370 ,2,0,2.,0.8,0.,0.8,0.,0.8,8.,0.8
1979-03-02 12:01:12.170 ,2,0,3.,0.8,0.,0.8,1.,0.8,8.,0.8
1979-03-02 12:01:12.970 ,2,0,3.,0.8,0.,0.8,1.,0.8,7.,0.8
1979-03-02 12:01:13.770 ,2,0,4.,0.8,0.,0.8,0.,0.8,8.,0.8
1979-03-02 12:01:14.570 ,2,0,2.,0.8,0.,0.8,0.,0.8,9.,0.8
1979-03-02 12:01:15.370 ,2,0,3.,0.8,1.,0.8,0.,0.8,7.,0.8
1979-03-02 12:01:16.170 ,2,0,5.,0.8,0.,0.8,2.,0.8,4.,0.8
1979-03-02 12:01:16.970 ,2,0,3.,0.8,0.,0.8,0.,0.8,8.,0.8
1979-03-02 12:01:17.770 ,2,0,3.,0.8,0.,0.8,0.,0.8,7.,0.8
1979-03-02 12:01:18.570 ,2,0,1.,0.8,0.,0.8,0.,0.8,12.,0.8
1979-03-02 12:01:19.370 ,2,0,4.,0.8,0.,0.8,0.,0.8,6.,0.8
1979-03-02 12:01:20.170 ,2,0,4.,0.8,1.,0.8,0.,0.8,4.,0.8
1979-03-02 12:01:20.970 ,2,0,3.,0.8,0.,0.8,1.,0.8,9.,0.8
1979-03-02 12:01:21.770 ,2,0,4.,0.8,0.,0.8,3.,0.8,6.,0.8
1979-03-02 12:01:22.570 ,2,0,2.,0.8,0.,0.8,1.,0.8,7.,0.8
1979-03-02 12:01:23.370 ,2,0,4.,0.8,0.,0.8,0.,0.8,9.,0.8
1979-03-02 12:01:24.170 ,1,0,6.,0.8,0.,0.8,0.,0.8,6.,0.8
1979-03-02 12:01:24.970 ,1,0,3.,0.8,0.,0.8,0.,0.8,6.,0.8
1979-03-02 12:01:25.770 ,1,0,6.,0.8,0.,0.8,0.,0.8,7.,0.8
1979-03-02 12:01:26.570 ,1,0,3.,0.8,0.,0.8,0.,0.8,5.,0.8
1979-03-02 12:01:27.370 ,1,0,5.,0.8,0.,0.8,2.,0.8,5.,0.8
1979-03-02 12:01:28.170 ,1,0,3.,0.8,0.,0.8,1.,0.8,10.,0.8
1979-03-02 12:01:28.970 ,1,0,2.,0.8,0.,0.8,1.,0.8,8.,0.8
1979-03-02 12:01:29.770 ,1,0,2.,0.8,0.,0.8,1.,0.8,8.,0.8
1979-03-02 12:01:30.570 ,1,0,4.,0.8,0.,0.8,1.,0.8,8.,0.8
1979-03-02 12:01:31.370 ,1,0,5.,0.8,0.,0.8,0.,0.8,9.,0.8
1979-03-02 12:01:32.170 ,1,0,5.,0.8,0.,0.8,1.,0.8,6.,0.8
1979-03-02 12:01:32.970 ,1,0,4.,0.8,2.,0.8,0.,0.8,7.,0.8
1979-03-02 12:01:33.770 ,1,0,4.,0.8,1.,0.8,2.,0.8,6.,0.8
1979-03-02 12:01:34.570 ,1,0,6.,0.8,0.,0.8,3.,0.8,2.,0.8
1979-03-02 12:01:35.370 ,1,0,2.,0.8,0.,0.8,0.,0.8,6.,0.8
1979-03-02 12:01:36.170 ,1,0,4.,0.8,0.,0.8,0.,0.8,7.,0.8
1979-03-02 12:01:36.970 ,1,0,3.,0.8,0.,0.8,0.,0.8,8.,0.8
1979-03-02 12:01:37.770 ,1,0,4.,0.8,0.,0.8,0.,0.8,10.,0.8
1979-03-02 12:01:38.570 ,1,0,2.,0.8,0.,0.8,1.,0.8,5.,0.8
1979-03-02 12:01:39.370 ,1,0,5.,0.8,0.,0.8,0.,0.8,6.,0.8
1979-03-02 12:01:40.170 ,1,0,3.,0.8,0.,0.8,0.,0.8,10.,0.8
1979-03-02 12:01:40.970 ,1,0,2.,0.8,0.,0.8,0.,0.8,4.,0.8
1979-03-02 12:01:41.770 ,1,0,3.,0.8,0.,0.8,1.,0.8,6.,0.8
1979-03-02 12:01:42.570 ,1,0,9.,0.8,3.,0.8,1.,0.8,6.,0.8
1979-03-02 12:01:43.370 ,1,0,2.,0.8,0.,0.8,2.,0.8,6.,0.8
1979-03-02 12:01:44.170 ,1,0,5.,0.8,2.,0.8,0.,0.8,11.,0.8
1979-03-02 12:01:44.970 ,1,0,5.,0.8,1.,0.8,1.,0.8,5.,0.8
1979-03-02 12:01:45.770 ,1,0,5.,0.8,1.,0.8,0.,0.8,6.,0.8
1979-03-02 12:01:46.570 ,1,0,5.,0.8,0.,0.8,1.,0.8,5.,0.8
1979-03-02 12:01:47.370 ,1,0,5.,0.8,0.,0.8,0.,0.8,6.,0.8
1979-03-02 12:01:48.170 ,0,0,4.,0.8,0.,0.8,1.,0.8,5.,0.8
1979-03-02 12:01:48.970 ,0,0,3.,0.8,1.,0.8,0.,0.8,4.,0.8
1979-03-02 12:01:49.770 ,0,0,2.,0.8,0.,0.8,1.,0.8,4.,0.8
1979-03-02 12:01:50.570 ,0,0,4.,0.8,0.,0.8,2.,0.8,7.,0.8
1979-03-02 12:01:51.370 ,0,0,4.,0.8,0.,0.8,0.,0.8,7.,0.8
1979-03-02 12:01:52.170 ,0,0,4.,0.8,2.,0.8,2.,0.8,9.,0.8
1979-03-02 12:01:52.970 ,0,0,4.,0.8,1.,0.8,0.,0.8,7.,0.8
1979-03-02 12:01:53.770 ,0,0,7.,0.8,0.,0.8,3.,0.8,8.,0.8
1979-03-02 12:01:54.570 ,0,0,2.,0.8,0.,0.8,0.,0.8,4.,0.8
1979-03-02 12:01:55.370 ,0,0,0.,0.8,1.,0.8,0.,0.8,5.,0.8
1979-03-02 12:01:56.170 ,0,0,4.,0.8,0.,0.8,2.,0.8,9.,0.8
1979-03-02 12:01:56.970 ,0,0,4.,0.8,0.,0.8,0.,0.8,11.,0.8
1979-03-02 12:01:57.770 ,0,0,3.,0.8,1.,0.8,1.,0.8,8.,0.8
1979-03-02 12:01:58.570 ,0,0,4.,0.8,0.,0.8,1.,0.8,3.,0.8
1979-03-02 12:01:59.370 ,0,0,1.,0.8,1.,0.8,1.,0.8,6.,0.8
1979-03-02 12:02:00.170 ,0,0,3.,0.8,0.,0.8,2.,0.8,6.,0.8
1979-03-02 12:02:00.970 ,0,0,5.,0.8,0.,0.8,1.,0.8,10.,0.8
1979-03-02 12:02:01.770 ,0,0,6.,0.8,2.,0.8,0.,0.8,8.,0.8
1979-03-02 12:02:02.570 ,0,0,1.,0.8,1.,0.8,1.,0.8,7.,0.8
1979-03-02 12:02:03.370 ,0,0,5.,0.8,0.,0.8,0.,0.8,5.,0.8
1979-03-02 12:02:04.170 ,0,0,3.,0.8,0.,0.8,1.,0.8,4.,0.8
1979-03-02 12:02:04.970 ,0,0,8.,0.8,0.,0.8,2.,0.8,5.,0.8
1979-03-02 12:02:05.770 ,0,0,3.,0.8,1.,0.8,2.,0.8,6.,0.8
1979-03-02 12:02:06.570 ,0,0,6.,0.8,0.,0.8,2.,0.8,3.,0.8
1979-03-02 12:02:07.370 ,0,0,5.,0.8,0.,0.8,1.,0.8,5.,0.8
1979-03-02 12:02:08.170 ,0,0,4.,0.8,1.,0.8,0.,0.8,8.,0.8
1979-03-02 12:02:08.970 ,0,0,4.,0.8,0.,0.8,1.,0.8,7.,0.8
1979-03-02 12:02:09.770 ,0,0,4.,0.8,0.,0.8,2.,0.8,7.,0.8
1979-03-02 12:02:10.570 ,0,0,6.,0.8,0.,0.8,1.,0.8,9.,0.8
1979-03-02 12:02:11.370 ,0,0,9.,0.8,1.,0.8,0.,0.8,4.,0.8
1979-03-02 12:02:12.170 ,0,0,3.,0.8,0.,0.8,0.,0.8,9.,0.8
1979-03-02 12:02:12.970 ,0,0,4.,0.8,0.,0.8,0.,0.8,11.,0.8
1979-03-02 12:02:13.770 ,0,0,3.,0.8,0.,0.8,1.,0.8,11.,0.8
1979-03-02 12:02:14.570 ,0,0,5.,0.8,2.,0.8,1.,0.8,3.,0.8
1979-03-02 12:02:15.370 ,0,0,5.,0.8,0.,0.8,1.,0.8,4.,0.8
1979-03-02 12:02:16.170 ,0,0,6.,0.8,0.,0.8,1.,0.8,5.,0.8
1979-03-02 12:02:16.970 ,0,0,4.,0.8,0.,0.8,0.,0.8,2.,0.8
1979-03-02 12:02:17.770 ,0,0,4.,0.8,0.,0.8,1.,0.8,4.,0.8
1979-03-02 12:02:18.570 ,0,0,2.,0.8,1.,0.8,1.,0.8,4.,0.8
1979-03-02 12:02:19.370 ,0,0,6.,0.8,0.,0.8,1.,0.8,7.,0.8
1979-03-02 12:02:20.170 ,0,0,3.,0.8,0.,0.8,0.,0.8,6.,0.8
1979-03-02 12:02:20.970 ,0,0,6.,0.8,0.,0.8,4.,0.8,6.,0.8
1979-03-02 12:02:21.770 ,0,0,5.,0.8,1.,0.8,1.,0.8,9.,0.8
1979-03-02 12:02:22.570 ,0,0,1.,0.8,0.,0.8,1.,0.8,7.,0.8
1979-03-02 12:02:23.370 ,0,0,6.,0.8,1.,0.8,3.,0.8,9.,0.8
1979-03-02 12:02:24.170 ,0,0,3.,0.8,0.,0.8,1.,0.8,7.,0.8
1979-03-02 12:02:24.970 ,0,0,3.,0.8,0.,0.8,1.,0.8,5.,0.8
1979-03-02 12:02:25.770 ,0,0,3.,0.8,1.,0.8,1.,0.8,5.,0.8
1979-03-02 12:02:26.570 ,0,0,5.,0.8,0.,0.8,1.,0.8,8.,0.8
1979-03-02 12:02:27.370 ,0,0,1.,0.8,0.,0.8,1.,0.8,5.,0.8
1979-03-02 12:02:28.170 ,0,0,3.,0.8,0.,0.8,2.,0.8,6.,0.8
1979-03-02 12:02:28.970 ,0,0,3.,0.8,0.,0.8,1.,0.8,3.,0.8
1979-03-02 12:02:29.770 ,0,0,4.,0.8,0.,0.8,0.,0.8,7.,0.8
1979-03-02 12:02:30.570 ,0,0,6.,0.8,0.,0.8,0.,0.8,10.,0.8
1979-03-02 12:02:31.370 ,0,0,4.,0.8,1.,0.8,0.,0.8,6.,0.8
1979-03-02 12:02:32.170 ,0,0,3.,0.8,0.,0.8,2.,0.8,9.,0.8
1979-03-02 12:02:32.970 ,0,0,0.,0.8,1.,0.8,0.,0.8,4.,0.8
1979-03-02 12:02:33.770 ,0,0,5.,0.8,1.,0.8,1.,0.8,7.,0.8
1979-03-02 12:02:34.570 ,0,0,2.,0.8,1.,0.8,3.,0.8,2.,0.8
1979-03-02 12:02:35.370 ,0,0,3.,0.8,0.,0.8,1.,0.8,8.,0.8
1979-03-02 12:02:36.170 ,1,0,6.,0.8,0.,0.8,0.,0.8,8.,0.8
1979-03-02 12:02:36.970 ,1,0,5.,0.8,0.,0.8,1.,0.8,9.,0.8
1979-03-02 12:02:37.770 ,1,0,2.,0.8,1.,0.8,1.,0.8,6.,0.8
1979-03-02 12:02:38.570 ,1,0,6.,0.8,2.,0.8,1.,0.8,5.,0.8
1979-03-02 12:02:39.370 ,1,0,5.,0.8,0.,0.8,0.,0.8,7.,0.8
1979-03-02 12:02:40.170 ,1,0,2.,0.8,0.,0.8,1.,0.8,9.,0.8
1979-03-02 12:02:40.970 ,1,0,6.,0.8,0.,0.8,0.,0.8,6.,0.8
1979-03-02 12:02:41.770 ,1,0,4.,0.8,2.,0.8,0.,0.8,6.,0.8
1979-03-02 12:02:42.570 ,1,0,4.,0.8,0.,0.8,0.,0.8,9.,0.8
1979-03-02 12:02:43.370 ,1,0,4.,0.8,0.,0.8,1.,0.8,4.,0.8
1979-03-02 12:02:44.170 ,1,0,4.,0.8,0.,0.8,0.,0.8,5.,0.8
1979-03-02 12:02:44.970 ,1,0,4.,0.8,0.,0.8,0.,0.8,10.,0.8
1979-03-02 12:02:45.770 ,1,0,5.,0.8,0.,0.8,1.,0.8,7.,0.8
1979-03-02 12:02:46.570 ,1,0,4.,0.8,0.,0.8,0.,0.8,3.,0.8
1979-03-02 12:02:47.370 ,1,0,3.,0.8,1.,0.8,2.,0.8,7.,0.8
1979-03-02 12:02:48.170 ,1,0,3.,0.8,0.,0.8,1.,0.8,8.,0.8
1979-03-02 12:02:48.970 ,1,0,5.,0.8,1.,0.8,0.,0.8,6.,0.8
1979-03-02 12:02:49.770 ,1,0,2.,0.8,0.,0.8,1.,0.8,5.,0.8
1979-03-02 12:02:50.570 ,1,0,2.,0.8,0.,0.8,1.,0.8,3.,0.8
1979-03-02 12:02:51.370 ,1,0,2.,0.8,1.,0.8,0.,0.8,9.,0.8
1979-03-02 12:02:52.170 ,1,0,7.,0.8,1.,0.8,0.,0.8,7.,0.8
1979-03-02 12:02:52.970 ,1,0,7.,0.8,0.,0.8,0.,0.8,15.,0.8
1979-03-02 12:02:53.770 ,1,0,4.,0.8,1.,0.8,0.,0.8,8.,0.8
1979-03-02 12:02:54.570 ,1,0,4.,0.8,0.,0.8,2.,0.8,8.,0.8
1979-03-02 12:02:55.370 ,1,0,5.,0.8,1.,0.8,0.,0.8,8.,0.8
1979-03-02 12:02:56.170 ,1,0,6.,0.8,1.,0.8,1.,0.8,9.,0.8
1979-03-02 12:02:56.970 ,1,0,6.,0.8,1.,0.8,0.,0.8,13.,0.8
1979-03-02 12:02:57.770 ,1,0,2.,0.8,1.,0.8,1.,0.8,6.,0.8
1979-03-02 12:02:58.570 ,1,0,4.,0.8,1.,0.8,1.,0.8,10.,0.8
1979-03-02 12:02:59.370 ,1,0,3.,0.8,0.,0.8,3.,0.8,5.,0.8
1979-03-02 12:03:00.170 ,2,0,1.,0.8,0.,0.8,1.,0.8,9.,0.8
1979-03-02 12:03:00.970 ,2,0,2.,0.8,0.,0.8,0.,0.8,7.,0.8
1979-03-02 12:03:01.770 ,2,0,3.,0.8,0.,0.8,0.,0.8,7.,0.8
1979-03-02 12:03:02.570 ,2,0,5.,0.8,1.,0.8,0.,0.8,11.,0.8
1979-03-02 12:03:03.370 ,2,0,2.,0.8,1.,0.8,2.,0.8,11.,0.8
1979-03-02 12:03:04.170 ,2,0,4.,0.8,1.,0.8,0.,0.8,5.,0.8
1979-03-02 12:03:04.970 ,2,0,6.,0.8,0.,0.8,2.,0.8,3.,0.8
1979-03-02 12:03:05.770 ,2,0,7.,0.8,0.,0.8,0.,0.8,3.,0.8
1979-03-02 12:03:06.570 ,2,0,3.,0.8,0.,0.8,1.,0.8,6.,0.8
1979-03-02 12:03:07.370 ,2,0,4.,0.8,0.,0.8,1.,0.8,5.,0.8
1979-03-02 12:03:08.170 ,2,0,3.,0.8,0.,0.8,0.,0.8,10.,0.8
1979-03-02 12:03:08.970 ,2,0,2.,0.8,1.,0.8,0.,0.8,9.,0.8
1979-03-02 12:03:09.770 ,2,0,3.,0.8,0.,0.8,0.,0.8,4.,0.8
1979-03-02 12:03:10.570 ,2,0,3.,0.8,0.,0.8,0.,0.8,10.,0.8
1979-03-02 12:03:11.370 ,2,0,4.,0.8,0.,0.8,0.,0.8,11.,0.8
1979-03-02 12:03:12.170 ,2,0,3.,0.8,1.,0.8,0.,0.8,5.,0.8
1979-03-02 12:03:12.970 ,2,0,4.,0.8,0.,0.8,0.,0.8,6.,0.8
1979-03-02 12:03:13.770 ,2,0,3.,0.8,0.,0.8,1.,0.8,4.,0.8
1979-03-02 12:03:14.570 ,2,0,5.,0.8,0.,0.8,0.,0.8,3.,0.8
1979-03-02 12:03:15.370 ,2,0,4.,0.8,0.,0.8,1.,0.8,10.,0.8
1979-03-02 12:03:16.170 ,2,0,3.,0.8,0.,0.8,0.,0.8,6.,0.8
1979-03-02 12:03:16.970 ,2,0,4.,0.8,0.,0.8,0.,0.8,13.,0.8
1979-03-02 12:03:17.770 ,2,0,1.,0.8,0.,0.8,0.,0.8,5.,0.8
1979-03-02 12:03:18.570 ,2,0,4.,0.8,1.,0.8,0.,0.8,4.,0.8
1979-03-02 12:03:19.370 ,2,0,4.,0.8,1.,0.8,0.,0.8,8.,0.8
1979-03-02 12:03:20.170 ,2,0,3.,0.8,0.,0.8,0.,0.8,5.,0.8
1979-03-02 12:03:20.970 ,2,0,7.,0.8,0.,0.8,1.,0.8,3.,0.8
1979-03-02 12:03:21.770 ,2,0,4.,0.8,0.,0.8,1.,0.8,6.,0.8
1979-03-02 12:03:22.570 ,2,0,2.,0.8,0.,0.8,0.,0.8,13.,0.8
1979-03-02 12:03:23.370 ,2,0,3.,0.8,0.,0.8,0.,0.8,9.,0.8
1979-03-02 12:03:24.170 ,3,0,7.,0.8,0.,0.8,0.,0.8,4.,0.8
1979-03-02 12:03:24.970 ,3,0,4.,0.8,1.,0.8,0.,0.8,9.,0.8
1979-03-02 12:03:25.770 ,3,0,4.,0.8,0.,0.8,0.,0.8,4.,0.8
1979-03-02 12:03:26.570 ,3,0,5.,0.8,0.,0.8,1.,0.8,9.,0.8
1979-03-02 12:03:27.370 ,3,0,4.,0.8,0.,0.8,0.,0.8,6.,0.8
1979-03-02 12:03:28.170 ,3,0,3.,0.8,0.,0.8,0.,0.8,6.,0.8
1979-03-02 12:03:28.970 ,3,0,4.,0.8,0.,0.8,1.,0.8,2.,0.8
1979-03-02 12:03:29.770 ,3,0,4.,0.8,0.,0.8,1.,0.8,6.,0.8
1979-03-02 12:03:30.570 ,3,0,6.,0.8,0.,0.8,0.,0.8,7.,0.8
1979-03-02 12:03:31.370 ,3,0,3.,0.8,0.,0.8,0.,0.8,7.,0.8
1979-03-02 12:03:32.170 ,3,0,6.,0.8,0.,0.8,0.,0.8,7.,0.8
1979-03-02 12:03:32.970 ,3,0,5.,0.8,0.,0.8,0.,0.8,5.,0.8
1979-03-02 12:03:33.770 ,3,0,3.,0.8,0.,0.8,0.,0.8,4.,0.8
1979-03-02 12:03:34.570 ,3,0,3.,0.8,1.,0.8,0.,0.8,6.,0.8
1979-03-02 12:03:35.370 ,3,0,4.,0.8,1.,0.8,1.,0.8,5.,0.8
1979-03-02 12:03:36.170 ,3,0,1.,0.8,0.,0.8,0.,0.8,4.,0.8
1979-03-02 12:03:36.970 ,3,0,2.,0.8,0.,0.8,1.,0.8,3.,0.8
1979-03-02 12:03:37.770 ,3,0,1.,0.8,0.,0.8,0.,0.8,5.,0.8
1979-03-02 12:03:38.570 ,3,0,4.,0.8,0.,0.8,0.,0.8,6.,0.8
1979-03-02 12:03:39.370 ,3,0,3.,0.8,0.,0.8,1.,0.8,10.,0.8
1979-03-02 12:03:40.170 ,3,0,3.,0.8,1.,0.8,0.,0.8,5.,0.8
1979-03-02 12:03:40.970 ,3,0,2.,0.8,0.,0.8,1.,0.8,6.,0.8
1979-03-02 12:03:41.770 ,3,0,3.,0.8,0.,0.8,1.,0.8,3.,0.8
1979-03-02 12:03:42.570 ,3,0,3.,0.8,0.,0.8,0.,0.8,4.,0.8
1979-03-02 12:03:43.370 ,3,0,3.,0.8,0.,0.8,0.,0.8,6.,0.8
1979-03-02 12:03:44.170 ,3,0,5.,0.8,0.,0.8,0.,0.8,3.,0.8
1979-03-02 12:03:44.970 ,3,0,4.,0.8,0.,0.8,0.,0.8,8.,0.8
1979-03-02 12:03:45.770 ,3,0,4.,0.8,0.,0.8,0.,0.8,6.,0.8
1979-03-02 12:03:46.570 ,3,0,6.,0.8,1.,0.8,0.,0.8,6.,0.8
1979-03-02 12:03:47.370 ,3,0,2.,0.8,0.,0.8,1.,0.8,6.,0.8
1979-03-02 12:03:48.170 ,4,0,3.,0.8,0.,0.8,1.,0.8,1.,0.8
1979-03-02 12:03:48.970 ,4,0,2.,0.8,1.,0.8,0.,0.8,2.,0.8
1979-03-02 12:03:49.770 ,4,0,4.,0.8,0.,0.8,0.,0.8,7.,0.8
1979-03-02 12:03:50.570 ,4,0,3.,0.8,0.,0.8,0.,0.8,8.,0.8
1979-03-02 12:03:51.370 ,4,0,3.,0.8,0.,0.8,0.,0.8,4.,0.8
1979-03-02 12:03:52.170 ,4,0,5.,0.8,0.,0.8,0.,0.8,6.,0.8
1979-03-02 12:03:52.970 ,4,0,2.,0.8,0.,0.8,1.,0.8,4.,0.8
1979-03-02 12:03:53.770 ,4,0,5.,0.8,0.,0.8,0.,0.8,2.,0.8
1979-03-02 12:03:54.570 ,4,0,6.,0.8,0.,0.8,0.,0.8,4.,0.8
1979-03-02 12:03:55.370 ,4,0,2.,0.8,1.,0.8,0.,0.8,2.,0.8
1979-03-02 12:03:56.170 ,4,0,3.,0.8,1.,0.8,0.,0.8,5.,0.8
1979-03-02 12:03:56.970 ,4,0,2.,0.8,0.,0.8,0.,0.8,7.,0.8
1979-03-02 12:03:57.770 ,4,0,5.,0.8,0.,0.8,0.,0.8,6.,0.8
1979-03-02 12:03:58.570 ,4,0,1.,0.8,0.,0.8,1.,0.8,7.,0.8
1979-03-02 12:03:59.370 ,4,0,3.,0.8,0.,0.8,0.,0.8,7.,0.8
1979-03-02 12:04:00.170 ,4,0,4.,0.8,0.,0.8,2.,0.8,5.,0.8
1979-03-02 12:04:00.970 ,4,0,2.,0.8,0.,0.8,1.,0.8,4.,0.8
1979-03-02 12:04:01.770 ,4,0,3.,0.8,1.,0.8,1.,0.8,3.,0.8
1979-03-02 12:04:02.570 ,4,0,5.,0.8,0.,0.8,1.,0.8,3.,0.8
1979-03-02 12:04:03.370 ,4,0,2.,0.8,0.,0.8,0.,0.8,9.,0.8
1979-03-02 12:04:04.170 ,4,0,6.,0.8,0.,0.8,0.,0.8,6.,0.8
1979-03-02 12:04:04.970 ,4,0,3.,0.8,0.,0.8,0.,0.8,5.,0.8
1979-03-02 12:04:05.770 ,4,0,4.,0.8,0.,0.8,1.,0.8,2.,0.8
1979-03-02 12:04:06.570 ,4,0,4.,0.8,0.,0.8,0.,0.8,13.,0.8
1979-03-02 12:04:07.370 ,4,0,3.,0.8,1.,0.8,0.,0.8,4.,0.8
1979-03-02 12:04:08.170 ,4,0,1.,0.8,1.,0.8,2.,0.8,5.,0.8
1979-03-02 12:04:08.970 ,4,0,3.,0.8,0.,0.8,1.,0.8,6.,0.8
1979-03-02 12:04:09.770 ,4,0,5.,0.8,0.,0.8,0.,0.8,5.,0.8
1979-03-02 12:04:10.570 ,4,0,3.,0.8,0.,0.8,0.,0.8,7.,0.8
1979-03-02 12:04:11.370 ,4,0,2.,0.8,0.,0.8,0.,0.8,4.,0.8
1979-03-02 12:04:12.170 ,5,0,2.,0.8,0.,0.8,0.,0.8,2.,0.8
1979-03-02 12:04:12.970 ,5,0,2.,0.8,1.,0.8,0.,0.8,7.,0.8
1979-03-02 12:04:13.770 ,5,0,2.,0.8,0.,0.8,0.,0.8,6.,0.8
1979-03-02 12:04:14.570 ,5,0,3.,0.8,0.,0.8,0.,0.8,6.,0.8
1979-03-02 12:04:15.370 ,5,0,1.,0.8,0.,0.8,0.,0.8,7.,0.8
1979-03-02 12:04:16.170 ,5,0,6.,0.8,0.,0.8,1.,0.8,3.,0.8
1979-03-02 12:04:16.970 ,5,0,4.,0.8,0.,0.8,0.,0.8,3.,0.8
1979-03-02 12:04:17.770 ,5,0,1.,0.8,0.,0.8,0.,0.8,4.,0.8
1979-03-02 12:04:18.570 ,5,0,4.,0.8,0.,0.8,0.,0.8,10.,0.8
1979-03-02 12:04:19.370 ,5,0,2.,0.8,0.,0.8,0.,0.8,1.,0.8
1979-03-02 12:04:20.170 ,5,0,1.,0.8,1.,0.8,0.,0.8,4.,0.8
1979-03-02 12:04:20.970 ,5,0,2.,0.8,1.,0.8,0.,0.8,5.,0.8
1979-03-02 12:04:21.770 ,5,0,5.,0.8,0.,0.8,0.,0.8,7.,0.8
1979-03-02 12:04:22.570 ,5,0,3.,0.8,2.,0.8,0.,0.8,11.,0.8
1979-03-02 12:04:23.370 ,5,0,4.,0.8,0.,0.8,0.,0.8,11.,0.8
1979-03-02 12:04:24.170 ,5,0,4.,0.8,0.,0.8,0.,0.8,8.,0.8
1979-03-02 12:04:24.970 ,5,0,3.,0.8,0.,0.8,1.,0.8,6.,0.8
1979-03-02 12:04:25.770 ,5,0,2.,0.8,0.,0.8,0.,0.8,5.,0.8
1979-03-02 12:04:26.570 ,5,0,3.,0.8,1.,0.8,1.,0.8,5.,0.8
1979-03-02 12:04:27.370 ,5,0,5.,0.8,0.,0.8,0.,0.8,6.,0.8
1979-03-02 12:04:28.170 ,5,0,4.,0.8,0.,0.8,0.,0.8,9.,0.8
1979-03-02 12:04:28.970 ,5,0,4.,0.8,2.,0.8,0.,0.8,3.,0.8
1979-03-02 12:04:29.770 ,5,0,4.,0.8,0.,0.8,0.,0.8,8.,0.8
1979-03-02 12:04:30.570 ,5,0,1.,0.8,0.,0.8,1.,0.8,6.,0.8
1979-03-02 12:04:31.370 ,5,0,4.,0.8,0.,0.8,0.,0.8,9.,0.8
1979-03-02 12:04:32.170 ,5,0,7.,0.8,0.,0.8,0.,0.8,6.,0.8
1979-03-02 12:04:32.970 ,5,0,3.,0.8,0.,0.8,1.,0.8,7.,0.8
1979-03-02 12:04:33.770 ,5,0,3.,0.8,0.,0.8,3.,0.8,9.,0.8
1979-03-02 12:04:34.570 ,5,0,2.,0.8,0.,0.8,0.,0.8,2.,0.8
1979-03-02 12:04:35.370 ,5,0,5.,0.8,0.,0.8,0.,0.8,6.,0.8
1979-03-02 12:04:36.170 ,6,0,2.,0.8,0.,0.8,1.,0.8,3.,0.8
1979-03-02 12:04:36.970 ,6,0,2.,0.8,0.,0.8,0.,0.8,6.,0.8
1979-03-02 12:04:37.770 ,6,0,3.,0.8,0.,0.8,1.,0.8,7.,0.8
1979-03-02 12:04:38.570 ,6,0,4.,0.8,0.,0.8,1.,0.8,6.,0.8
1979-03-02 12:04:39.370 ,6,0,0.,0.8,1.,0.8,0.,0.8,10.,0.8
1979-03-02 12:04:40.170 ,6,0,4.,0.8,0.,0.8,0.,0.8,4.,0.8
1979-03-02 12:04:40.970 ,6,0,2.,0.8,0.,0.8,1.,0.8,11.,0.8
1979-03-02 12:04:41.770 ,6,0,4.,0.8,1.,0.8,0.,0.8,9.,0.8
1979-03-02 12:04:42.570 ,6,0,3.,0.8,1.,0.8,1.,0.8,9.,0.8
1979-03-02 12:04:43.370 ,6,0,8.,0.8,0.,0.8,2.,0.8,6.,0.8
1979-03-02 12:04:44.170 ,6,0,8.,0.8,1.,0.8,1.,0.8,5.,0.8
1979-03-02 12:04:44.970 ,6,0,6.,0.8,1.,0.8,1.,0.8,7.,0.8
1979-03-02 12:04:45.770 ,6,0,2.,0.8,1.,0.8,1.,0.8,8.,0.8
1979-03-02 12:04:46.570 ,6,0,2.,0.8,0.,0.8,0.,0.8,7.,0.8
1979-03-02 12:04:47.370 ,6,0,2.,0.8,1.,0.8,2.,0.8,8.,0.8
1979-03-02 12:04:48.170 ,6,0,1.,0.8,1.,0.8,0.,0.8,10.,0.8
1979-03-02 12:04:48.970 ,6,0,5.,0.8,1.,0.8,1.,0.8,5.,0.8
1979-03-02 12:04:49.770 ,6,0,5.,0.8,0.,0.8,0.,0.8,9.,0.8
1979-03-02 12:04:50.570 ,6,0,1.,0.8,0.,0.8,1.,0.8,8.,0.8
1979-03-02 12:04:51.370 ,6,0,4.,0.8,0.,0.8,1.,0.8,6.,0.8
1979-03-02 12:04:52.170 ,6,0,3.,0.8,0.,0.8,0.,0.8,9.,0.8
1979-03-02 12:04:52.970 ,6,0,4.,0.8,2.,0.8,0.,0.8,13.,0.8
1979-03-02 12:04:53.770 ,6,0,2.,0.8,1.,0.8,0.,0.8,7.,0.8
1979-03-02 12:04:54.570 ,6,0,7.,0.8,0.,0.8,0.,0.8,9.,0.8
1979-03-02 12:04:55.370 ,6,0,4.,0.8,0.,0.8,0.,0.8,5.,0.8
1979-03-02 12:04:56.170 ,6,0,5.,0.8,0.,0.8,1.,0.8,9.,0.8
1979-03-02 12:04:56.970 ,6,0,6.,0.8,1.,0.8,2.,0.8,4.,0.8
1979-03-02 12:04:57.770 ,6,0,3.,0.8,2.,0.8,1.,0.8,6.,0.8
1979-03-02 12:04:58.570 ,6,0,3.,0.8,0.,0.8,0.,0.8,4.,0.8
1979-03-02 12:04:59.370 ,6,0,4.,0.8,2.,0.8,0.,0.8,3.,0.8
1979-03-02 12:05:00.170 ,7,0,5.,0.8,1.,0.8,0.,0.8,6.,0.8
1979-03-02 12:05:00.970 ,7,0,5.,0.8,0.,0.8,2.,0.8,4.,0.8
1979-03-02 12:05:01.770 ,7,0,5.,0.8,1.,0.8,0.,0.8,9.,0.8
1979-03-02 12:05:02.570 ,7,0,5.,0.8,0.,0.8,0.,0.8,9.,0.8
1979-03-02 12:05:03.370 ,7,0,4.,0.8,0.,0.8,1.,0.8,5.,0.8
1979-03-02 12:05:04.170 ,7,0,4.,0.8,0.,0.8,0.,0.8,8.,0.8
1979-03-02 12:05:04.970 ,7,0,3.,0.8,1.,0.8,0.,0.8,2.,0.8
1979-03-02 12:05:05.770 ,7,0,3.,0.8,1.,0.8,2.,0.8,7.,0.8
1979-03-02 12:05:06.570 ,7,0,1.,0.8,0.,0.8,1.,0.8,5.,0.8
1979-03-02 12:05:07.370 ,7,0,1.,0.8,0.,0.8,0.,0.8,3.,0.8
1979-03-02 12:05:08.170 ,7,0,2.,0.8,0.,0.8,0.,0.8,5.,0.8
1979-03-02 12:05:08.970 ,7,0,0.,0.8,0.,0.8,0.,0.8,4.,0.8
1979-03-02 12:05:09.770 ,7,0,1.,0.8,0.,0.8,0.,0.8,8.,0.8
1979-03-02 12:05:10.570 ,7,0,2.,0.8,0.,0.8,0.,0.8,5.,0.8
1979-03-02 12:05:11.370 ,7,0,2.,0.8,0.,0.8,0.,0.8,4.,0.8
1979-03-02 12:05:12.170 ,7,0,3.,0.8,0.,0.8,0.,0.8,8.,0.8
1979-03-02 12:05:12.970 ,7,0,0.,0.8,0.,0.8,0.,0.8,3.,0.8
1979-03-02 12:05:13.770 ,7,0,2.,0.8,0.,0.8,0.,0.8,5.,0.8
1979-03-02 12:05:14.570 ,7,0,2.,0.8,0.,0.8,0.,0.8,4.,0.8
1979-03-02 12:05:15.370 ,7,0,1.,0.8,1.,0.8,0.,0.8,5.,0.8
1979-03-02 12:05:16.170 ,7,0,3.,0.8,0.,0.8,0.,0.8,6.,0.8
1979-03-02 12:05:16.970 ,7,0,1.,0.8,0.,0.8,0.,0.8,2.,0.8
1979-03-02 12:05:17.770 ,7,0,0.,0.8,0.,0.8,0.,0.8,7.,0.8
1979-03-02 12:05:18.570 ,7,0,2.,0.8,0.,0.8,0.,0.8,8.,0.8
1979-03-02 12:05:19.370 ,7,0,,0,,0,,0,,0
1979-03-02 12:05:20.170 ,7,0,4.,0.8,0.,0.8,0.,0.8,6.,0.8
1979-03-02 12:05:20.970 ,7,0,2.,0.8,0.,0.8,0.,0.8,4.,0.8
1979-03-02 12:05:21.770 ,7,0,1.,0.8,0.,0.8,0.,0.8,3.,0.8
1979-03-02 12:05:22.570 ,7,0,2.,0.8,0.,0.8,0.,0.8,6.,0.8
1979-03-02 12:05:23.370 ,7,0,3.,0.8,0.,0.8,0.,0.8,7.,0.8
1979-03-02 12:06:12.170 ,0,0,5.,0.8,0.,0.8,2.,0.8,10.,0.8
1979-03-02 12:06:12.970 ,0,0,3.,0.8,0.,0.8,1.,0.8,4.,0.8
1979-03-02 12:06:13.770 ,0,0,3.,0.8,1.,0.8,3.,0.8,7.,0.8
1979-03-02 12:06:14.570 ,0,0,5.,0.8,0.,0.8,1.,0.8,10.,0.8
1979-03-02 12:06:15.370 ,0,0,3.,0.8,0.,0.8,0.,0.8,1.,0.8
1979-03-02 12:06:16.170 ,0,0,3.,0.8,0.,0.8,0.,0.8,7.,0.8
1979-03-02 12:06:16.970 ,0,0,4.,0.8,0.,0.8,0.,0.8,7.,0.8
1979-03-02 12:06:17.770 ,0,0,4.,0.8,1.,0.8,0.,0.8,9.,0.8
1979-03-02 12:06:18.570 ,0,0,7.,0.8,0.,0.8,0.,0.8,5.,0.8
1979-03-02 12:06:19.370 ,0,0,5.,0.8,0.,0.8,0.,0.8,8.,0.8
1979-03-02 12:06:20.170 ,0,0,4.,0.8,1.,0.8,0.,0.8,6.,0.8
1979-03-02 12:06:20.970 ,0,0,4.,0.8,0.,0.8,1.,0.8,5.,0.8
1979-03-02 12:06:21.770 ,0,0,5.,0.8,0.,0.8,0.,0.8,4.,0.8
1979-03-02 12:06:22.570 ,0,0,5.,0.8,0.,0.8,0.,0.8,4.,0.8
1979-03-02 12:06:23.370 ,0,0,4.,0.8,0.,0.8,0.,0.8,3.,0.8
1979-03-02 12:06:24.170 ,0,0,1.,0.8,2.,0.8,1.,0.8,3.,0.8
1979-03-02 12:06:24.970 ,0,0,5.,0.8,1.,0.8,0.,0.8,9.,0.8
1979-03-02 12:06:25.770 ,0,0,7.,0.8,0.,0.8,0.,0.8,7.,0.8
1979-03-02 12:06:26.570 ,0,0,7.,0.8,1.,0.8,1.,0.8,6.,0.8
1979-03-02 12:06:27.370 ,0,0,4.,0.8,0.,0.8,0.,0.8,7.,0.8
1979-03-02 12:06:28.170 ,0,0,6.,0.8,1.,0.8,0.,0.8,5.,0.8
1979-03-02 12:06:28.970 ,0,0,3.,0.8,0.,0.8,2.,0.8,5.,0.8